Tracking 19245 objects as of 17-Aug-2018
HD Live streaming from Space Station
objects crossing your sky now

FENGYUN 1C DEB

Track FENGYUN 1C DEB now!
10-day predictions


NORAD ID: 30152
Int'l Code: 1999-025TH
Perigee: 821.2 km
Apogee: 1,095.9 km
Inclination: 99.1 °
Period: 104.1 minutes
Semi major axis: 7329 km
RCS: 0.042 m2 (small)
Launch date: May 10, 1999
Source: People's Republic of China (PRC)
Launch site: Taiyaun Space Center, China (TSC)

Note: This is SATELLITE DEBRIS
aabbcc
Your satellite tracking list
Your tracking list is empty




NASA's NSSDC Master Catalog

Two Line Element Set (TLE):
1 30152U 99025TH  18228.36536904 +.00000940 +00000-0 +77723-3 0  9995
2 30152 099.1242 115.2060 0187361 103.0781 259.1359 13.83527256582787
Source of the keplerian elements: AFSPC